カタログに戻る

CSTP-2.1

運用中科学SSO
NORAD 61777·PAYLOAD·🇮🇷 Iran

打ち上げ Nov 4, 2024 から Vostochny Cosmodrome

Loading…

次のパス (今後24時間)

TLE

最新Source: Space-Track

元期: Sep 14, 2026, 15:12 UTC

1 61777U 24199AU  26257.63373503  .00016186  00000-0  30465-3 0  9998
2 61777  97.2817 130.8126 0011882 316.5297  43.5016 15.48543232148018

AllMySatでCSTP-2.1をリアルタイム追跡

Download on the App Store